EW4117 Weather Reports


time (UTC)temp
F
wind
direction
speed
knots
gust
knots
rain 1hr
in
rain 24hr
in
rain mn
in
humidity
%
barometer
mb
20260507023028 46 148 0.0 1.7 0.00 0.00 0.00 65 1005.0
20260507021524 46 141 0.9 0.0 0.00 0.00 0.00 65 1005.0
20260507020023 46 124 0.0 0.0 0.00 0.00 0.00 67 1005.1
20260507014521 46 136 0.0 0.9 0.00 0.00 0.00 67 1005.1
20260507013023 46 171 0.0 0.0 0.00 0.00 0.00 67 1005.3
20260507011533 46 173 0.0 0.0 0.00 0.00 0.00 67 1005.5
20260507010015 47 185 0.9 4.3 0.00 0.00 0.00 66 1005.6
20260507004517 47 203 1.7 4.3 0.00 0.00 0.00 66 1005.7
20260507003012 48 166 0.9 6.1 0.00 0.00 0.00 65 1005.8
20260507001504 49 198 0.0 5.2 0.00 0.00 0.00 63 1006.0
20260507000003 49 195 0.0 0.0 0.00 0.00 0.00 61 1006.0
20260506234606 50 207 0.0 0.0 0.00 0.00 0.00 60 1006.2
20260506233058 50 255 0.0 0.0 0.00 0.00 0.00 59 1006.1
20260506231557 51 132 0.0 2.6 0.00 0.00 0.00 58 1006.3
20260506230057 51 159 3.5 5.2 0.00 0.00 0.00 58 1006.3
20260506224554 51 116 3.5 6.1 0.00 0.00 0.00 57 1006.4
20260506223053 51 163 1.7 3.5 0.00 0.00 0.00 57 1006.3
20260506221550 51 198 3.5 6.1 0.00 0.00 0.00 57 1006.5
20260506220058 51 174 4.3 7.0 0.00 0.00 0.00 56 1006.4
20260506214548 50 167 0.0 2.6 0.00 0.00 0.00 53 1006.6
20260506213046 51 200 0.0 0.0 0.00 0.00 0.00 50 1006.6
20260506211547 52 223 0.0 0.0 0.00 0.00 0.00 49 1006.5
20260506210050 52 191 0.0 0.9 0.00 0.00 0.00 48 1006.3
20260506204547 52 159 0.9 1.7 0.00 0.00 0.00 50 1006.1
20260506203126 52 214 0.0 0.9 0.00 0.00 0.00 48 1006.0
20260506201546 52 215 0.0 0.0 0.00 0.00 0.00 47 1006.0
20260506200048 53 313 0.0 0.0 0.00 0.00 0.00 47 1005.8
20260506194542 53 314 0.0 0.9 0.00 0.00 0.00 45 1005.6
20260506193041 54 331 0.0 0.0 0.00 0.00 0.00 44 1005.4
20260506191544 54 333 0.0 0.9 0.00 0.00 0.00 43 1005.2
20260506190048 54 353 1.7 3.5 0.00 0.00 0.00 43 1005.1
20260506184551 55 311 1.7 6.1 0.00 0.00 0.00 43 1005.1
20260506183039 55 316 2.6 5.2 0.00 0.00 0.00 42 1005.1
20260506181539 56 319 0.9 5.2 0.00 0.00 0.00 42 1004.9
20260506180039 56 264 2.6 7.0 0.00 0.00 0.00 40 1004.7
20260506174537 57 264 3.5 8.7 0.00 0.00 0.00 38 1004.6
20260506173047 59 300 3.5 7.0 0.00 0.00 0.00 36 1004.6
20260506171538 60 2 5.2 8.7 0.00 0.00 0.00 34 1004.5
20260506170035 59 319 3.5 8.7 0.00 0.00 0.00 34 1004.5
20260506164538 59 347 0.9 5.2 0.00 0.00 0.00 35 1004.4
20260506163053 59 359 1.7 4.3 0.00 0.00 0.00 35 1004.5
20260506161533 60 338 0.0 2.6 0.00 0.00 0.00 34 1004.5
20260506160032 60 308 2.6 7.0 0.00 0.00 0.00 35 1004.6
20260506154536 60 343 5.2 8.7 0.00 0.00 0.00 34 1004.5
20260506153031 61 327 0.0 0.9 0.00 0.00 0.00 35 1004.8
20260506151534 61 321 0.9 6.1 0.00 0.00 0.00 35 1004.9
20260506150025 61 327 1.7 5.2 0.00 0.00 0.00 36 1005.0
20260506144519 60 226 0.0 5.2 0.00 0.00 0.00 37 1005.2
20260506143017 60 347 3.5 13.9 0.00 0.00 0.00 38 1005.5
20260506141514 60 58 5.2 10.4 0.00 0.00 0.00 36 1005.7
20260506140019 61 330 4.3 8.7 0.00 0.00 0.00 36 1005.7
20260506134510 60 348 1.7 7.0 0.00 0.00 0.00 37 1005.7
20260506133009 59 358 5.2 11.3 0.00 0.00 0.00 38 1005.8
20260506131514 59 18 0.0 7.8 0.00 0.00 0.00 40 1005.8
20260506130006 59 268 2.6 8.7 0.00 0.00 0.00 39 1005.8
20260506124504 59 343 7.0 10.4 0.00 0.00 0.00 40 1005.9
20260506123003 58 6 2.6 7.8 0.00 0.00 0.00 41 1006.0
20260506121501 58 350 5.2 9.6 0.00 0.00 0.00 40 1006.2
20260506120100 58 316 2.6 7.8 0.00 0.00 0.00 41 1006.3
20260506114557 57 298 5.2 8.7 0.00 0.00 0.00 40 1006.6
20260506113054 57 1 5.2 12.2 0.00 0.00 0.00 41 1006.6
20260506111553 56 325 2.6 7.0 0.00 0.00 0.00 45 1006.8
20260506110056 56 356 3.5 7.8 0.00 0.00 0.00 44 1006.9
20260506104548 55 6 3.5 7.8 0.00 0.00 0.00 44 1007.1
20260506103045 55 312 3.5 7.8 0.00 0.00 0.00 45 1007.2
20260506101549 54 25 0.0 6.1 0.00 0.00 0.00 46 1007.3
20260506100042 54 302 0.0 3.5 0.00 0.00 0.00 47 1007.4
20260506094540 53 327 1.7 5.2 0.00 0.00 0.00 47 1007.5
20260506093039 52 335 4.3 7.0 0.00 0.00 0.00 47 1007.3
20260506091538 52 21 3.5 6.1 0.00 0.00 0.00 46 1007.2
20260506090037 52 48 0.0 5.2 0.00 0.00 0.00 46 1007.3
20260506084542 51 284 1.7 7.0 0.00 0.00 0.00 48 1007.3
20260506083033 51 308 0.9 6.1 0.00 0.00 0.00 48 1007.3
20260506081540 51 332 2.6 7.8 0.00 0.00 0.00 48 1007.2
20260506073030 51 15 0.9 3.5 0.00 0.00 0.00 44 1007.2
20260506071529 52 8 0.0 0.9 0.00 0.00 0.00 43 1007.2
20260506061521 47 127 0.0 2.6 0.00 0.00 0.00 50 1007.5
20260506044515 44 288 0.0 0.0 0.00 0.00 0.00 53 1007.2
20260506043010 44 288 0.0 0.0 0.00 0.00 0.00 53 1007.1
20260506041607 44 144 0.0 0.0 0.00 0.00 0.00 52 1007.2
20260506040006 44 158 0.9 2.6 0.00 0.00 0.00 52 1007.3
20260506034505 45 146 1.7 2.6 0.00 0.00 0.00 52 1007.3
20260506033002 45 146 0.0 1.7 0.00 0.00 0.00 53 1007.3
20260506031603 45 148 0.9 2.6 0.00 0.00 0.00 52 1007.5
20260506030100 45 155 0.0 1.7 0.00 0.00 0.00 52 1007.6
20260506024608 45 146 0.0 0.0 0.00 0.00 0.00 53 1007.5